Wind_Speed
36 37 37 38 39 41 41 39 36 34 33 33 34 36 38 39 40 40 40 39 37 35 33 31 30 29 28 27 26 25 25 24 25 25 26 26 26 27
39 39 40 41 41 41 43 43 41 38 35 35 35 37 39 41 42 43 42 40 38 36 34 32 30 29 27 26 25 24 23 22 23 23 24 25 25 26
42 43 43 45 45 44 44 45 44 43 40 38 38 38 41 43 44 45 43 42 40 38 36 33 31 30 28 25 24 22 21 20 20 21 21 22 23 24
44 45 46 48 49 49 48 47 47 47 44 42 42 41 41 44 45 46 45 44 42 41 38 35 33 31 28 26 23 21 20 19 19 19 19 20 22 23
48 48 49 50 52 53 53 52 50 49 49 47 45 44 44 45 47 47 46 45 44 42 40 38 35 32 29 27 24 22 20 19 18 18 18 19 20 21
51 51 52 53 54 56 57 57 55 53 52 51 48 46 47 47 48 48 47 47 45 44 42 40 37 34 31 28 26 23 20 19 18 17 18 18 19 20
52 53 53 54 55 58 60 61 60 58 56 55 53 50 49 49 48 48 48 48 47 45 43 42 40 37 33 30 26 24 22 20 18 17 18 18 19 20
50 52 54 54 55 57 60 63 64 63 60 59 56 54 51 49 49 48 49 49 48 47 45 43 42 38 35 31 27 24 22 21 19 18 18 19 19 20
47 49 51 52 54 56 59 63 66 67 65 63 60 57 54 51 50 49 49 50 49 48 47 44 43 40 37 32 28 25 23 21 19 19 19 19 19 20
45 47 48 50 52 54 57 62 66 68 68 65 62 59 58 54 51 49 50 51 50 49 48 45 44 41 38 34 30 26 24 21 20 19 19 19 19 20
43 43 44 47 50 52 55 60 65 68 70 69 67 63 61 58 54 52 51 51 50 49 48 46 45 43 40 36 32 28 25 23 21 20 19 19 19 19
36 38 40 43 46 49 52 57 63 67 70 71 68 65 62 60 56 53 51 49 49 48 48 48 46 44 41 38 34 30 27 24 22 20 20 19 19 19
29 30 32 37 41 45 49 53 59 64 68 70 69 67 64 61 58 55 51 49 49 48 49 50 49 46 43 39 36 32 29 25 23 21 20 19 19 19
20 22 25 30 35 40 44 49 54 59 64 67 68 66 64 60 58 56 52 49 49 48 50 52 51 48 45 42 38 34 31 27 24 22 21 20 19 19
12 14 19 25 29 35 40 46 49 53 59 63 64 63 62 60 58 56 53 51 50 49 49 50 51 50 47 43 40 37 33 29 26 24 22 21 20 19
5 8 15 21 26 32 37 42 44 47 52 56 59 60 60 60 58 56 53 51 49 48 48 49 50 50 48 45 42 38 35 31 27 25 23 22 21 20
2 7 13 18 22 28 32 36 40 44 46 50 55 58 59 58 57 57 54 51 49 46 46 47 49 51 50 47 43 39 36 32 29 27 25 24 23 21
4 8 12 16 20 25 31 33 37 41 42 47 51 54 57 58 57 57 55 52 49 47 45 44 46 48 49 47 43 39 37 34 31 29 27 26 24 23
5 8 11 15 19 24 28 31 34 37 39 43 47 51 55 57 57 56 54 52 49 48 46 43 44 45 47 46 43 41 38 36 33 30 29 28 26 24
6 8 11 14 17 20 23 28 32 34 36 40 44 48 52 55 57 56 54 53 51 49 46 44 42 42 43 45 45 43 41 37 34 32 31 29 27 25
6 9 11 13 15 17 20 24 27 30 34 38 42 46 49 53 55 56 55 53 51 49 47 44 42 42 43 45 45 43 40 37 35 33 31 29 27 26
8 10 12 14 15 17 19 21 24 27 30 35 40 45 48 51 54 56 56 54 51 50 48 46 44 42 42 42 43 42 40 38 35 33 31 29 28 27
10 12 13 15 16 17 18 20 21 23 26 30 35 41 46 50 52 54 56 54 53 52 50 47 45 43 42 42 42 42 40 38 35 33 31 30 29 28
Wind_Direction
254 249 246 244 241 238 234 231 230 230 229 229 227 222 218 217 218 219 218 218 215 213 211 211 212 213 214 216 217 219 221 224 226 228 230 232 233 236
255 251 247 243 241 238 235 232 229 228 226 225 224 221 216 216 217 218 218 217 214 211 210 210 209 209 210 212 214 216 218 221 225 227 229 232 233 235
257 253 249 244 240 238 235 233 230 226 223 223 223 221 217 215 215 217 217 215 213 211 210 208 207 208 208 207 209 211 213 217 222 226 229 231 233 235
260 256 251 245 240 237 235 233 230 227 224 222 221 220 218 215 215 216 216 214 213 211 209 208 207 206 205 205 207 210 213 218 223 226 229 232 234 236
263 258 253 247 241 237 234 232 230 227 225 222 220 218 217 215 214 215 215 214 213 212 210 208 207 205 205 206 209 211 215 220 225 229 232 235 237 238
264 260 255 249 243 237 233 231 229 227 225 223 220 218 217 215 213 213 213 213 213 212 211 209 208 207 208 209 211 214 217 222 226 231 236 238 240 241
265 261 256 250 244 238 233 230 228 226 225 223 220 218 217 214 212 211 212 213 213 212 211 210 209 208 209 211 212 215 220 225 229 235 239 241 242 243
266 261 256 251 245 239 233 228 226 225 223 222 220 218 217 214 212 211 211 212 213 212 212 211 210 210 210 212 213 216 221 225 230 236 241 244 244 244
267 260 255 250 244 238 232 226 223 222 221 221 219 218 217 214 213 212 211 211 212 212 212 212 211 211 211 212 214 217 221 225 231 238 243 246 247 247
268 260 254 248 243 236 230 224 220 219 218 218 218 217 216 214 212 211 211 210 212 213 212 212 212 212 211 212 214 217 221 226 233 239 244 248 249 249
269 260 252 245 239 233 227 222 218 215 215 215 215 215 215 214 212 211 210 210 211 211 212 212 213 213 212 213 214 217 221 226 233 240 246 249 250 250
268 258 249 240 234 228 223 218 215 213 212 213 213 212 213 212 212 211 210 210 211 211 211 212 213 213 213 214 215 217 221 226 233 241 248 251 251 250
269 257 245 235 228 222 216 213 210 210 210 211 211 211 211 211 211 211 210 209 209 209 211 212 213 213 214 215 215 217 221 226 233 241 248 251 250 249
270 252 237 226 218 212 209 207 206 206 208 209 209 209 210 210 211 210 210 210 207 208 210 212 213 213 214 215 216 218 221 225 232 239 246 248 247 247
266 238 220 211 206 202 200 200 200 204 206 206 207 207 208 208 209 209 208 209 209 208 209 212 213 213 214 216 217 219 221 225 230 237 242 245 245 245
259 214 201 196 194 193 194 195 197 200 202 203 204 205 204 205 207 207 207 208 209 208 209 211 212 213 214 216 218 220 222 225 230 234 239 241 242 243
182 179 178 179 185 188 190 191 193 195 197 200 202 203 203 203 204 205 207 207 207 207 208 209 211 213 214 215 217 220 222 225 229 233 236 239 242 243
146 163 168 170 173 180 186 189 189 191 194 196 198 200 201 202 203 203 205 206 206 208 208 209 209 212 214 215 217 220 222 225 228 231 234 238 241 242
135 154 159 164 169 176 182 186 188 190 193 194 196 198 199 200 202 203 204 205 205 207 208 208 209 211 213 215 216 220 222 224 227 229 233 237 240 243
142 155 164 167 171 176 183 186 189 191 193 194 195 196 198 199 201 203 203 203 205 205 206 206 208 209 211 214 216 218 221 223 226 229 233 238 242 245
163 167 172 175 177 181 185 188 191 194 196 196 196 197 197 198 200 201 201 202 204 205 207 208 209 210 212 213 215 218 221 224 227 230 234 239 242 245
185 181 178 178 182 185 188 191 193 196 197 198 199 198 198 198 199 200 201 201 201 203 205 207 209 210 212 213 215 217 220 223 226 230 234 238 242 244
200 193 189 186 184 184 187 189 192 196 198 199 200 200 199 199 199 199 200 202 202 202 204 207 207 208 210 211 214 216 219 222 226 229 233 237 241 245
Height
5722 5724 5727 5730 5733 5737 5741 5745 5750 5754 5758 5762 5767 5771 5776 5781 5786 5791 5796 5801 5806 5810 5815 5819 5822 5826 5829 5832 5835 5837 5840 5842 5844 5846 5849 5851 5853 5856
5708 5711 5715 5718 5721 5725 5729 5733 5738 5743 5748 5752 5757 5762 5767 5773 5778 5783 5789 5795 5800 5805 5809 5813 5817 5821 5824 5828 5830 5833 5835 5837 5839 5841 5843 5845 5848 5850
5693 5696 5700 5704 5708 5712 5716 5721 5726 5731 5737 5742 5748 5753 5759 5764 5770 5775 5781 5788 5793 5798 5803 5808 5812 5816 5820 5823 5826 5829 5831 5833 5835 5837 5838 5841 5843 5845
5677 5679 5683 5687 5692 5697 5702 5708 5714 5719 5725 5731 5737 5743 5749 5755 5761 5767 5773 5780 5786 5792 5797 5802 5807 5811 5815 5819 5822 5825 5827 5829 5831 5833 5834 5836 5838 5839
5659 5661 5665 5669 5675 5680 5686 5693 5699 5706 5713 5719 5726 5732 5738 5744 5751 5757 5765 5772 5779 5785 5791 5796 5801 5806 5810 5814 5817 5820 5822 5825 5827 5828 5830 5831 5833 5834
5639 5641 5644 5649 5655 5661 5669 5676 5684 5692 5699 5707 5714 5720 5727 5733 5740 5748 5756 5764 5771 5777 5784 5790 5795 5801 5805 5809 5812 5815 5818 5820 5822 5824 5825 5827 5828 5829
5618 5619 5622 5627 5633 5641 5649 5658 5666 5676 5685 5693 5701 5708 5715 5723 5731 5738 5746 5755 5762 5769 5776 5783 5789 5794 5799 5803 5807 5810 5813 5815 5817 5819 5821 5822 5823 5824
5597 5598 5600 5605 5611 5619 5628 5637 5648 5658 5669 5678 5688 5696 5705 5713 5721 5729 5737 5746 5755 5762 5768 5775 5782 5788 5793 5797 5801 5804 5808 5810 5812 5814 5816 5817 5818 5819
5577 5577 5579 5583 5588 5596 5606 5616 5628 5639 5652 5663 5674 5684 5693 5702 5710 5719 5727 5735 5744 5752 5760 5767 5774 5780 5786 5791 5795 5799 5802 5805 5807 5809 5811 5812 5813 5813
5557 5557 5559 5562 5568 5575 5585 5596 5608 5621 5635 5648 5661 5671 5680 5690 5699 5708 5717 5725 5734 5743 5752 5760 5767 5773 5779 5784 5789 5793 5796 5799 5802 5804 5805 5806 5807 5808
5537 5537 5539 5543 5548 5555 5565 5578 5591 5603 5616 5630 5644 5656 5667 5678 5687 5696 5705 5715 5725 5734 5743 5752 5759 5765 5771 5777 5782 5787 5790 5794 5797 5798 5800 5801 5802 5803
5520 5519 5521 5525 5530 5537 5548 5560 5574 5587 5601 5616 5629 5642 5654 5666 5676 5686 5697 5707 5716 5726 5735 5743 5750 5757 5764 5770 5776 5780 5785 5788 5791 5793 5795 5796 5797 5798
5506 5505 5507 5511 5516 5525 5535 5547 5561 5574 5587 5601 5615 5629 5642 5654 5666 5677 5687 5698 5708 5717 5726 5733 5741 5749 5756 5763 5769 5774 5778 5782 5785 5788 5789 5791 5792 5793
5497 5496 5498 5501 5507 5516 5526 5538 5550 5562 5575 5589 5603 5618 5632 5645 5657 5668 5679 5689 5698 5707 5715 5724 5732 5741 5748 5755 5762 5767 5772 5776 5779 5782 5784 5785 5786 5787
5492 5492 5494 5498 5503 5511 5521 5532 5543 5555 5567 5580 5595 5609 5622 5635 5647 5658 5669 5679 5688 5697 5706 5715 5724 5732 5740 5748 5754 5760 5765 5770 5773 5776 5778 5780 5781 5782
5492 5492 5494 5498 5503 5511 5519 5529 5539 5550 5561 5573 5586 5599 5612 5625 5638 5649 5660 5670 5680 5689 5698 5707 5716 5724 5733 5740 5747 5753 5758 5763 5767 5770 5772 5774 5776 5777
5495 5495 5497 5501 5506 5512 5520 5528 5537 5547 5557 5568 5579 5592 5605 5617 5630 5641 5652 5663 5673 5682 5691 5699 5707 5716 5724 5732 5740 5746 5752 5757 5761 5764 5766 5768 5770 5771
5499 5500 5502 5505 5509 5515 5521 5529 5537 5546 5555 5564 5575 5586 5598 5610 5622 5633 5644 5656 5665 5674 5683 5691 5700 5708 5717 5726 5733 5740 5745 5750 5754 5757 5760 5762 5764 5765
5504 5505 5507 5510 5514 5518 5524 5531 5538 5545 5553 5562 5572 5582 5592 5604 5615 5626 5637 5648 5658 5667 5676 5684 5693 5701 5710 5719 5726 5732 5738 5742 5746 5750 5753 5755 5757 5759
5508 5509 5511 5514 5518 5522 5527 5532 5539 5545 5553 5560 5569 5578 5588 5598 5609 5620 5630 5641 5651 5660 5669 5678 5686 5695 5703 5711 5717 5723 5729 5734 5739 5743 5746 5749 5751 5753
5512 5513 5515 5518 5521 5525 5529 5534 5539 5545 5551 5558 5566 5574 5584 5593 5603 5614 5624 5634 5644 5654 5663 5672 5680 5687 5694 5702 5709 5716 5722 5727 5732 5736 5739 5742 5745 5746
5514 5516 5518 5520 5523 5527 5531 5535 5539 5544 5550 5556 5563 5571 5579 5588 5598 5608 5618 5628 5638 5648 5656 5664 5672 5680 5688 5695 5703 5709 5715 5720 5724 5729 5733 5736 5738 5739
5515 5517 5519 5522 5524 5528 5531 5535 5539 5544 5549 5554 5560 5567 5575 5583 5592 5602 5612 5621 5631 5640 5649 5657 5666 5673 5681 5688 5695 5701 5707 5712 5717 5722 5726 5728 5730 5732